[[{"header":{"parameterUnit":"m.s-1","parameterCategory":2,"la1":30.2991,"la2":30.254,"lo1":-89.0895,"lo2":-89.0444,"dy":0.0017,"dx":0.0017,"nx":28,"ny":28,"refTime":"2023-10-15T09:00:00:Z","depth":"0","parameterNumber":2,"parameterNumberName":"U-component_of_CURRENTS"},"data":[0,0,0,0,0,0,0,0,0,0,0,0,0,0,0,0,0,0,0,0,0,0,0,0,0,0,0,0,0,0,0,0,0,0,0,0,0,0,0,0,0,0,0,0,0,0,0,0,0,0,0,0,0,0,0,0,0,0,0.2386,0.2386,0,0.2372,0.2372,0.2372,0.2375,0.2375,0.2376,0.2376,0.2384,0.2384,0.2384,0,0,0,0,0,0,0,0,0,0,0,0,0,0.2389,0.2389,0.2386,0.2386,0.2386,0.2372,0.2372,0.2372,0.2375,0.2375,0.2376,0.2376,0.2384,0.2384,0.2384,0,0,0,0,0,0,0,0,0,0,0,0,0,0.2382,0.2389,0.2386,0.2386,0.2386,0.2372,0.2372,0.2371,0.2375,0.2375,0.2376,0.2376,0.2384,0.2384,0.2384,0.2372,0,0,0.2383,0.2383,0,0,0,0,0,0,0,0,0.2383,0.2382,0.2386,0.2386,0.2386,0.2376,0.2376,0.2373,0.2375,0.2378,0.2376,0.2377,0.2383,0.2383,0.2378,0.2373,0.2373,0.2383,0.2383,0.2383,0.2383,0,0,0,0,0,0,0,0.2383,0.2383,0.238,0.2386,0.2386,0.2378,0.2378,0.2375,0.2378,0.2378,0.2379,0.2378,0.2384,0.2378,0.2379,0.2373,0.2383,0.2383,0.2383,0.2383,0.2424,0.2425,0,0,0,0,0,0,0.2387,0.2383,0.238,0.2379,0.2387,0.2378,0.2378,0.2378,0.2378,0.2378,0.2378,0.2378,0.2378,0.2379,0.2379,0.2421,0.2383,0.2383,0.2383,0.2423,0.2424,0.2426,0,0,0,0,0,0,0.2387,0.2387,0.2381,0.2381,0.238,0.2378,0.2378,0.2378,0.2379,0.2377,0.2378,0.2381,0.2379,0.2379,0.2399,0.2419,0.2383,0.2382,0.2421,0.2423,0.2425,0.2469,0,0,0,0,0,0,0.2388,0.2387,0.2392,0.2382,0.238,0.2384,0.2378,0.2377,0.2378,0.2379,0.238,0.238,0.2379,0.24,0.2399,0.2418,0.2382,0.242,0.2422,0.2424,0.2466,0.2472,0.2478,0,0,0,0,0,0.2388,0.2387,0.2392,0.2392,0.2386,0.2384,0.2383,0.2382,0.2378,0.2384,0.2393,0.2381,0.2414,0.24,0.2399,0.2419,0.2419,0.2422,0.2424,0.2464,0.2471,0.2477,0,0,0,0,0,0,0.2388,0.2387,0.2393,0.2392,0.2396,0.2385,0.2385,0.2384,0.2392,0.2395,0.2393,0.2395,0.2423,0.2414,0.2399,0.2439,0.2415,0.2418,0.2445,0.2452,0.2458,0.2467,0.2382,0,0,0,0,0,0.2392,0.2395,0.2394,0.2397,0.2396,0.2392,0.2391,0.2392,0.2396,0.2399,0.2401,0.241,0.243,0.2436,0.2447,0.2461,0.247,0.2475,0.248,0.2485,0.2493,0.2531,0.2541,0.2434,0.2434,0.2434,0,0,0.2391,0.2393,0.2394,0.2398,0.2396,0.2401,0.2392,0.2393,0.2407,0.2399,0.2416,0.2429,0.244,0.2468,0.2478,0.2463,0.2522,0.2488,0.2492,0.2498,0.2535,0.2545,0.2554,0.2436,0.2436,0.2436,0,0,0.2388,0.2395,0.2395,0.2401,0.2405,0.2408,0.241,0.2408,0.2418,0.2436,0.2445,0.2473,0.2481,0.2506,0.2517,0.2558,0.2553,0.2558,0.2589,0.2626,0.2635,0.2643,0.2674,0.2684,0.2557,0.2557,0.2557,0,0.239,0.2393,0.2396,0.24,0.2407,0.2413,0.2419,0.243,0.2439,0.2455,0.2449,0.2497,0.2504,0.2556,0.2576,0.2571,0.2589,0.2561,0.2633,0.2641,0.2649,0.2679,0.2689,0.2559,0.2559,0.2559,0.2558,0,0.239,0.2395,0.2395,0.2409,0.2419,0.2425,0.2442,0.2457,0.2468,0.2483,0.2531,0.2551,0.2581,0.2592,0.2598,0.2659,0.2654,0.2639,0.2615,0.2662,0.269,0.2701,0.2563,0.2562,0.2561,0.2561,0,0,0.2385,0.2394,0.2395,0.2404,0.2426,0.2432,0.2462,0.2493,0.2524,0.2542,0.2587,0.2629,0.2641,0.2657,0.2671,0.2707,0.2778,0.2699,0.27,0.2729,0.2863,0.2853,0.2863,0.2777,0.2779,0.278,0.2863,0,0.2387,0.2398,0.2405,0.2422,0.243,0.2451,0.248,0.2513,0.255,0.2596,0.2632,0.2679,0.2666,0.2694,0.2728,0.2773,0.2808,0.2757,0.2814,0.2816,0.28,0.2875,0.2861,0.2933,0.2873,0.2875,0.2876,0,0.2391,0.2397,0.2412,0.2435,0.244,0.2454,0.2513,0.2541,0.2609,0.2643,0.2695,0.2724,0.2792,0.277,0.2858,0.2828,0.285,0.2875,0.2878,0.2861,0.2826,0.2876,0.2954,0.2965,0.2892,0.2891,0.289,0,0.2399,0.2406,0.2421,0.2429,0.2454,0.2468,0.249,0.2553,0.2597,0.2682,0.2727,0.2795,0.2843,0.2884,0.2931,0.2902,0.3029,0.2986,0.2996,0.2995,0.299,0.2985,0.3084,0.3047,0.3046,0.3046,0.3046,0,0.2409,0.2415,0.2421,0.2431,0.2451,0.2469,0.2518,0.2557,0.2634,0.2693,0.2748,0.2817,0.2876,0.2946,0.2969,0.303,0.3054,0.3026,0.3026,0.3005,0.3,0.3012,0.3004,0.3049,0.3049,0.3048,0.3047,0,0.2409,0.242,0.2434,0.2453,0.2457,0.2474,0.2526,0.2569,0.2637,0.2721,0.2751,0.2859,0.2949,0.3004,0.3093,0.3081,0.3087,0.3145,0.3116,0.3111,0.3097,0.309,0.2994,0.2892,0.3164,0.3164,0.3164,0,0.24,0.2409,0.2442,0.2454,0.2457,0.2482,0.2506,0.2572,0.2624,0.2744,0.2786,0.2901,0.2985,0.3118,0.3154,0.3208,0.3116,0.3193,0.3125,0.3122,0.3116,0.2937,0.2844,0.3141,0.3141,0.3141,0.3141,0,0.2366,0.2391,0.2405,0.2426,0.2449,0.248,0.2515,0.2567,0.2645,0.2714,0.2815,0.2894,0.3044,0.3118,0.3194,0.3214,0.3095,0.3193,0.321,0.3134,0.2927,0.2821,0.3054,0.3142,0.3142,0.3142,0.3142,0.3142,0.232,0.2326,0.2341,0.2357,0.2397,0.2428,0.2426,0.2497,0.2558,0.264,0.278,0.289,0.3083,0.3203,0.3184,0.3218,0.3095,0.3185,0.3188,0.3012,0.2883,0.3113,0.3182,0.3182,0.3182,0.3182,0.3182,0,0.2193,0.2213,0.2251,0.2254,0.2264,0.2313,0.2374,0.2371,0.2398,0.2594,0.2675,0.2946,0.3066,0.3182,0.3323,0.3275,0.3048,0.3212,0.3001,0.2911,0.3179,0.3153,0.3194,0.3194,0.3194,0.3194,0.3194,0.3194,0.2114,0.2086,0.2112,0.2073,0.2097,0.2068,0.2085,0.2137,0.2258,0.2424,0.2606,0.2801,0.3171,0.3472,0.3517,0.3409,0.3143,0.3022,0.2928,0.3226,0.3223,0.3221,0.3196,0.3246,0.3246,0.2546,0.2542,0.2539]},{"header":{"parameterUnit":"m.s-1","parameterCategory":2,"la1":30.2991,"la2":30.254,"lo1":-89.0895,"lo2":-89.0444,"dy":0.0017,"dx":0.0017,"nx":28,"ny":28,"refTime":"2023-10-15T09:00:00:Z","depth":"0","parameterNumber":3,"parameterNumberName":"V-component_of_CURRENTS"},"data":[0,0,0,0,0,0,0,0,0,0,0,0,0,0,0,0,0,0,0,0,0,0,0,0,0,0,0,0,0,0,0,0,0,0,0,0,0,0,0,0,0,0,0,0,0,0,0,0,0,0,0,0,0,0,0,0,0,0,-0.004,-0.004,0,-0.0098,-0.0099,-0.01,-0.0142,-0.0142,-0.0143,-0.0143,-0.0231,-0.0233,-0.0235,0,0,0,0,0,0,0,0,0,0,0,0,0,-0.0014,-0.0014,-0.0039,-0.004,-0.0041,-0.0098,-0.0099,-0.01,-0.0142,-0.0142,-0.0143,-0.0143,-0.023,-0.0232,-0.0235,0,0,0,0,0,0,0,0,0,0,0,0,0,-0.0045,-0.0014,-0.0039,-0.0068,-0.0071,-0.0098,-0.0099,-0.01,-0.0142,-0.0142,-0.0143,-0.0143,-0.0229,-0.0232,-0.0235,-0.0247,0,0,-0.0245,-0.0246,0,0,0,0,0,0,0,0,-0.0043,-0.0046,-0.0063,-0.0066,-0.007,-0.0112,-0.0122,-0.015,-0.0142,-0.0116,-0.0143,-0.0143,-0.0193,-0.0199,-0.021,-0.0251,-0.0255,-0.0245,-0.0247,-0.0248,-0.0249,0,0,0,0,0,0,0,-0.0041,-0.0044,-0.0064,-0.0064,-0.0068,-0.0095,-0.01,-0.0128,-0.0153,-0.0118,-0.0121,-0.0126,-0.0195,-0.0207,-0.0213,-0.0256,-0.0245,-0.0248,-0.025,-0.0251,-0.0325,-0.0325,0,0,0,0,0,0,-0.0029,-0.0042,-0.0062,-0.0065,-0.0056,-0.0095,-0.01,-0.0099,-0.0152,-0.016,-0.0126,-0.0128,-0.0201,-0.0209,-0.0216,-0.0227,-0.0248,-0.0251,-0.0253,-0.0325,-0.0325,-0.0325,0,0,0,0,0,0,-0.0028,-0.003,-0.0059,-0.0055,-0.006,-0.0094,-0.0093,-0.01,-0.0113,-0.0157,-0.0166,-0.0132,-0.0202,-0.0211,-0.0241,-0.0231,-0.0253,-0.0256,-0.0325,-0.0325,-0.0325,-0.0254,0,0,0,0,0,0,-0.0027,-0.0029,-0.0027,-0.0053,-0.006,-0.0069,-0.0093,-0.0101,-0.0115,-0.0118,-0.0165,-0.0174,-0.0203,-0.0236,-0.0244,-0.0236,-0.0258,-0.0325,-0.0325,-0.0325,-0.0256,-0.0252,-0.0248,0,0,0,0,0,-0.0025,-0.0014,-0.0026,-0.0029,-0.0055,-0.0069,-0.0074,-0.0102,-0.0114,-0.0115,-0.015,-0.0172,-0.0243,-0.0238,-0.0248,-0.0241,-0.0325,-0.0325,-0.0325,-0.0258,-0.0253,-0.0248,0,0,0,0,0,0,-0.0003,-0.0018,-0.0032,-0.0026,-0.0045,-0.0075,-0.0077,-0.0097,-0.0125,-0.0128,-0.0173,-0.0184,-0.0206,-0.0236,-0.023,-0.0265,-0.0288,-0.029,-0.0234,-0.0229,-0.0225,-0.0197,-0.0261,0,0,0,0,0,0.0004,0.0008,-0.0015,-0.0012,-0.0017,-0.0047,-0.0058,-0.0074,-0.01,-0.0113,-0.0146,-0.0183,-0.0214,-0.0231,-0.0263,-0.028,-0.0307,-0.0284,-0.0279,-0.0275,-0.026,-0.0301,-0.0298,-0.0326,-0.0326,-0.0326,0,0,0.0012,0.0005,0.0004,-0.0008,-0.0023,-0.0018,-0.0054,-0.0061,-0.0059,-0.0118,-0.0127,-0.0168,-0.0217,-0.0236,-0.0248,-0.0259,-0.0282,-0.0276,-0.0272,-0.0258,-0.0301,-0.0298,-0.0295,-0.0326,-0.0326,-0.0326,0,0,0.0036,0.0026,0.0039,0.0032,0.0018,0.0003,0.0004,-0.0022,-0.0036,-0.0053,-0.0095,-0.013,-0.0175,-0.0207,-0.023,-0.0223,-0.0258,-0.0235,-0.0189,-0.0228,-0.0226,-0.0224,-0.025,-0.0251,-0.0232,-0.0232,-0.0232,0,0.0045,0.0062,0.0039,0.0053,0.0057,0.0018,0.0038,0.0018,-0.0015,-0.0021,-0.0046,-0.0113,-0.016,-0.0182,-0.0183,-0.0212,-0.0234,-0.0201,-0.0221,-0.022,-0.0219,-0.0246,-0.0248,-0.0228,-0.0229,-0.0229,-0.0229,0,0.0081,0.0095,0.0105,0.0113,0.0112,0.0122,0.0101,0.0092,0.0069,0.0048,0.002,-0.0046,-0.0084,-0.011,-0.0145,-0.0161,-0.0177,-0.0209,-0.0227,-0.0212,-0.0241,-0.0245,-0.0223,-0.0225,-0.0226,-0.0227,0,0,0.0106,0.0127,0.013,0.0151,0.0148,0.0156,0.016,0.0156,0.0167,0.0118,0.0122,0.0051,0.0016,-0.0012,-0.0067,-0.0105,-0.0129,-0.0146,-0.015,-0.0159,-0.0202,-0.0217,-0.0222,-0.0162,-0.0162,-0.0163,-0.0222,0,0.0143,0.0188,0.0186,0.0232,0.0258,0.0237,0.0245,0.0235,0.0218,0.021,0.0139,0.0118,0.0053,0.0035,-0.0012,-0.0098,-0.0135,-0.0109,-0.0226,-0.0229,-0.0235,-0.0226,-0.0237,-0.0291,-0.0226,-0.0226,-0.0227,0,0.0182,0.0211,0.0261,0.0302,0.0311,0.0328,0.0349,0.0355,0.033,0.0316,0.0283,0.0229,0.017,0.0106,-0.0017,0.0006,-0.0085,-0.0158,-0.0163,-0.02,-0.025,-0.03,-0.03,-0.0492,-0.0232,-0.0232,-0.0231,0,0.022,0.0267,0.0312,0.0326,0.0357,0.0376,0.039,0.0387,0.0413,0.0389,0.0399,0.0317,0.0279,0.0161,0.0016,-0.0001,-0.012,-0.0169,-0.0267,-0.0269,-0.0313,-0.0318,-0.0501,-0.0257,-0.0257,-0.0257,-0.0256,0,0.0265,0.0307,0.0334,0.0364,0.0424,0.0425,0.0485,0.0484,0.0501,0.0545,0.0461,0.047,0.0291,0.02,0.0056,-0.0101,-0.0092,-0.0248,-0.0284,-0.0289,-0.0291,-0.0487,-0.0599,-0.0259,-0.0258,-0.0258,-0.0257,0,0.0306,0.0319,0.0383,0.0426,0.0446,0.049,0.0562,0.0607,0.0607,0.0661,0.0659,0.0587,0.0467,0.0291,0.0097,-0.0042,-0.0319,-0.0261,-0.0244,-0.0277,-0.0551,-0.0657,-0.0869,-0.0977,-0.038,-0.0381,-0.0382,0,0.0334,0.0368,0.0433,0.0478,0.0505,0.0572,0.0623,0.0656,0.072,0.074,0.0776,0.0678,0.0631,0.0351,0.0083,-0.0163,-0.0351,-0.0338,-0.0383,-0.056,-0.0705,-0.0783,-0.0863,-0.0417,-0.0418,-0.0418,-0.0419,0,0.04,0.0414,0.0465,0.0553,0.0619,0.0702,0.0783,0.085,0.0892,0.093,0.0964,0.0925,0.0655,0.0402,0.0062,-0.0125,-0.0494,-0.036,-0.056,-0.0757,-0.0838,-0.0959,-0.0377,-0.0425,-0.0424,-0.0424,-0.0423,-0.0423,0.045,0.0494,0.0555,0.0642,0.072,0.0825,0.0902,0.0989,0.1086,0.1158,0.1109,0.1081,0.0706,0.0237,-0.004,-0.0554,-0.0569,-0.0716,-0.0829,-0.089,-0.1001,-0.0418,-0.0497,-0.0497,-0.0497,-0.0497,-0.0496,0,0.0516,0.0563,0.0647,0.0748,0.0842,0.0869,0.1005,0.1082,0.1193,0.1266,0.1283,0.1076,0.0608,0.0135,-0.0547,-0.0937,-0.1094,-0.1162,-0.1294,-0.1356,-0.0851,-0.086,-0.1001,-0.1001,-0.1001,-0.1,-0.1,-0.1,0.0556,0.0641,0.0679,0.0836,0.0906,0.1036,0.1113,0.1212,0.1296,0.137,0.1355,0.1304,0.0936,-0.0284,-0.1191,-0.1414,-0.17,-0.1761,-0.1913,-0.1588,-0.1555,-0.1524,-0.1559,-0.1844,-0.1845,-0.2372,-0.2377,-0.2381]}],[{"header":{"parameterUnit":"m.s-1","parameterCategory":2,"la1":30.2991,"la2":30.254,"lo1":-89.0895,"lo2":-89.0444,"dy":0.0017,"dx":0.0017,"nx":28,"ny":28,"refTime":"2023-10-15T09:00:00:Z","depth":"2","parameterNumber":2,"parameterNumberName":"U-component_of_CURRENTS"},"data":[0,0,0,0,0,0,0,0,0,0,0,0,0,0,0,0,0,0,0,0,0,0,0,0,0,0,0,0,0,0,0,0,0,0,0,0,0,0,0,0,0,0,0,0,0,0,0,0,0,0,0,0,0,0,0,0,0,0,0.2305,0.2305,0,0.2293,0.2293,0.2293,0.2299,0.2299,0.2299,0.23,0.2312,0.2312,0.2312,0,0,0,0,0,0,0,0,0,0,0,0,0,0.2307,0.2307,0.2305,0.2305,0.2305,0.2293,0.2293,0.2293,0.2299,0.2299,0.23,0.23,0.2312,0.2312,0.2312,0,0,0,0,0,0,0,0,0,0,0,0,0,0.2301,0.2307,0.2305,0.2307,0.2307,0.2293,0.2293,0.2292,0.2299,0.2299,0.23,0.23,0.2312,0.2312,0.2311,0.2299,0,0,0.2311,0.2311,0,0,0,0,0,0,0,0,0.2302,0.2301,0.2307,0.2307,0.2307,0.2299,0.2298,0.2296,0.2298,0.2301,0.23,0.2301,0.231,0.231,0.2305,0.23,0.23,0.2311,0.2311,0.2311,0.2311,0,0,0,0,0,0,0,0.2302,0.2302,0.23,0.2307,0.2307,0.23,0.23,0.2297,0.2302,0.2301,0.2301,0.2301,0.231,0.2305,0.2305,0.23,0.2311,0.2311,0.2311,0.2311,0.2358,0.2359,0,0,0,0,0,0,0.2306,0.2302,0.23,0.2299,0.2307,0.2299,0.2299,0.23,0.2301,0.2302,0.2301,0.2302,0.2304,0.2305,0.2306,0.235,0.2311,0.2311,0.2311,0.2357,0.2358,0.236,0,0,0,0,0,0,0.2306,0.2306,0.23,0.2301,0.23,0.2299,0.23,0.23,0.2303,0.2301,0.2303,0.2306,0.2305,0.2306,0.2329,0.2349,0.2311,0.2311,0.2355,0.2357,0.2359,0.2402,0,0,0,0,0,0,0.2306,0.2306,0.2313,0.2301,0.23,0.2304,0.2299,0.2299,0.2302,0.2303,0.2306,0.2307,0.2305,0.2329,0.2329,0.2348,0.2311,0.2354,0.2356,0.2358,0.2399,0.2405,0.241,0,0,0,0,0,0.2306,0.2306,0.2313,0.2313,0.2308,0.2305,0.2304,0.2304,0.2302,0.2309,0.232,0.2307,0.2344,0.233,0.2329,0.2349,0.2352,0.2355,0.2358,0.2396,0.2404,0.241,0,0,0,0,0,0,0.2308,0.2307,0.2314,0.2314,0.2319,0.2307,0.2308,0.2308,0.2318,0.2322,0.232,0.2323,0.2353,0.2345,0.2329,0.2371,0.2347,0.235,0.2376,0.2383,0.2389,0.2399,0.2311,0,0,0,0,0,0.2313,0.2317,0.2316,0.232,0.232,0.2316,0.2315,0.2318,0.2322,0.2326,0.2329,0.234,0.2361,0.2368,0.2379,0.2395,0.2405,0.2409,0.2415,0.242,0.2429,0.2465,0.2475,0.2369,0.2369,0.2369,0,0,0.2314,0.2316,0.2317,0.2322,0.232,0.2325,0.2317,0.2319,0.2333,0.2326,0.2346,0.2359,0.2372,0.24,0.2412,0.2397,0.2457,0.2424,0.2428,0.2435,0.2469,0.2479,0.2488,0.2371,0.2371,0.2371,0,0,0.2312,0.232,0.2321,0.2326,0.2332,0.2334,0.2338,0.2335,0.2346,0.2366,0.2376,0.2406,0.2416,0.244,0.2452,0.2494,0.2488,0.2494,0.2527,0.2562,0.2571,0.2579,0.2609,0.262,0.2494,0.2494,0.2494,0,0.2315,0.2319,0.2321,0.2326,0.2334,0.234,0.2347,0.2358,0.2369,0.2385,0.2381,0.2431,0.2439,0.2491,0.2513,0.2507,0.2524,0.2498,0.257,0.2578,0.2585,0.2614,0.2625,0.2496,0.2496,0.2496,0.2496,0,0.2316,0.2323,0.2322,0.2337,0.2347,0.2354,0.2371,0.2387,0.24,0.2414,0.2464,0.2486,0.2517,0.2529,0.2535,0.2597,0.2591,0.2574,0.255,0.2598,0.2626,0.2637,0.25,0.2499,0.2498,0.2498,0,0,0.2314,0.2322,0.2324,0.2334,0.2356,0.2362,0.2393,0.2424,0.2454,0.2475,0.252,0.2564,0.2578,0.2594,0.2609,0.2645,0.2715,0.2637,0.2637,0.2665,0.2796,0.2774,0.2783,0.2711,0.2713,0.2715,0.2796,0,0.2317,0.2328,0.2335,0.2354,0.2361,0.2383,0.2412,0.2445,0.2482,0.2529,0.2566,0.2614,0.2602,0.2632,0.2666,0.271,0.2745,0.2695,0.2748,0.275,0.2722,0.2795,0.2562,0.2614,0.2806,0.2808,0.2809,0,0.2323,0.2328,0.2345,0.2367,0.2372,0.2388,0.2446,0.2474,0.2542,0.2576,0.263,0.2658,0.2729,0.2707,0.2794,0.2764,0.2786,0.2811,0.2814,0.2786,0.2748,0.2597,0.2625,0.2826,0.2825,0.2824,0.2823,0,0.2333,0.234,0.2356,0.2364,0.2388,0.2404,0.2426,0.2488,0.2532,0.2617,0.2661,0.273,0.2779,0.2819,0.2866,0.2837,0.2961,0.2918,0.2917,0.2916,0.2725,0.2703,0.2978,0.2978,0.2978,0.2978,0.2977,0,0.2345,0.2351,0.2357,0.2368,0.2389,0.2406,0.2457,0.2495,0.2571,0.263,0.2684,0.2753,0.2811,0.288,0.2902,0.2956,0.2985,0.2947,0.2945,0.2734,0.2713,0.2896,0.2885,0.2981,0.298,0.2979,0.2979,0,0.2346,0.2357,0.2372,0.2391,0.2395,0.2414,0.2467,0.251,0.2577,0.266,0.2691,0.2795,0.288,0.2934,0.302,0.3004,0.3055,0.306,0.2814,0.2782,0.2973,0.2964,0.3065,0.3065,0.3065,0.3065,0.3065,0,0.2339,0.2348,0.2383,0.2395,0.2399,0.2426,0.2451,0.2515,0.2566,0.2683,0.2724,0.2835,0.2907,0.303,0.302,0.3057,0.3093,0.2862,0.2765,0.3,0.2988,0.2978,0.2969,0.2525,0.2521,0.2517,0.2514,0,0.2307,0.2334,0.2349,0.2372,0.2396,0.2427,0.2463,0.2512,0.2587,0.2649,0.2744,0.2813,0.2915,0.2854,0.2902,0.2888,0.2836,0.2794,0.3107,0.255,0.2501,0.2485,0.2492,0.2482,0.2486,0.2488,0.249,0.2491,0.2265,0.2272,0.229,0.2307,0.2348,0.2378,0.2375,0.2425,0.2474,0.2497,0.2662,0.2653,0.2689,0.2642,0.2593,0.254,0.2726,0.2593,0.26,0.2611,0.2545,0.2499,0.2468,0.2471,0.2474,0.2476,0.2478,0,0.2134,0.2163,0.2203,0.2206,0.2205,0.2267,0.2325,0.2275,0.2264,0.235,0.2386,0.2231,0.2221,0.2251,0.213,0.2162,0.2093,0.2075,0.1946,0.1982,0.2013,0.191,0.1668,0.1665,0.1663,0.166,0,0,0.2053,0.2023,0.2048,0.2004,0.2037,0.1979,0.1993,0.1961,0.1974,0.1935,0.1915,0.2074,0.2184,0.1871,0.1861,0.1737,0.1831,0.1675,0.2332,0.2214,0.224,0.2333,0.222,0,0,0,0,0]},{"header":{"parameterUnit":"m.s-1","parameterCategory":2,"la1":30.2991,"la2":30.254,"lo1":-89.0895,"lo2":-89.0444,"dy":0.0017,"dx":0.0017,"nx":28,"ny":28,"refTime":"2023-10-15T09:00:00:Z","depth":"2","parameterNumber":3,"parameterNumberName":"V-component_of_CURRENTS"},"data":[0,0,0,0,0,0,0,0,0,0,0,0,0,0,0,0,0,0,0,0,0,0,0,0,0,0,0,0,0,0,0,0,0,0,0,0,0,0,0,0,0,0,0,0,0,0,0,0,0,0,0,0,0,0,0,0,0,0,0.0041,0.0041,0,-0.0019,-0.002,-0.002,-0.0063,-0.0063,-0.0063,-0.0063,-0.0148,-0.015,-0.0152,0,0,0,0,0,0,0,0,0,0,0,0,0,0.0068,0.0068,0.0041,0.0041,0.004,-0.0019,-0.002,-0.0021,-0.0063,-0.0063,-0.0063,-0.0064,-0.0148,-0.015,-0.0153,0,0,0,0,0,0,0,0,0,0,0,0,0,0.0036,0.0068,0.0041,0.0012,0.0009,-0.0019,-0.002,-0.0021,-0.0063,-0.0063,-0.0063,-0.0064,-0.0147,-0.015,-0.0153,-0.0164,0,0,-0.0162,-0.0164,0,0,0,0,0,0,0,0,0.0038,0.0035,0.0017,0.0014,0.0011,-0.0033,-0.0042,-0.007,-0.0062,-0.0036,-0.0063,-0.0064,-0.0111,-0.0117,-0.0128,-0.0168,-0.0171,-0.0162,-0.0164,-0.0166,-0.0166,0,0,0,0,0,0,0,0.0041,0.0037,0.0017,0.0017,0.0013,-0.0015,-0.002,-0.0047,-0.0072,-0.0038,-0.0041,-0.0047,-0.0114,-0.0125,-0.0131,-0.0173,-0.0162,-0.0165,-0.0167,-0.0168,-0.0242,-0.0242,0,0,0,0,0,0,0.0053,0.004,0.0019,0.0015,0.0025,-0.0015,-0.002,-0.0019,-0.0071,-0.0079,-0.0046,-0.0049,-0.012,-0.0127,-0.0134,-0.0147,-0.0166,-0.0168,-0.017,-0.0242,-0.0242,-0.0242,0,0,0,0,0,0,0.0054,0.0052,0.0021,0.0026,0.002,-0.0015,-0.0013,-0.002,-0.0034,-0.0077,-0.0085,-0.0053,-0.0121,-0.013,-0.0159,-0.0151,-0.017,-0.0173,-0.0242,-0.0242,-0.0242,-0.0175,0,0,0,0,0,0,0.0055,0.0052,0.0054,0.0027,0.0021,0.001,-0.0013,-0.0021,-0.0036,-0.004,-0.0086,-0.0094,-0.0122,-0.0154,-0.0162,-0.0155,-0.0175,-0.0242,-0.0242,-0.0242,-0.0177,-0.0173,-0.0169,0,0,0,0,0,0.0056,0.0066,0.0055,0.0052,0.0025,0.001,0.0004,-0.0023,-0.0036,-0.0038,-0.0072,-0.0092,-0.0162,-0.0157,-0.0166,-0.016,-0.0242,-0.0242,-0.0242,-0.0179,-0.0174,-0.0169,0,0,0,0,0,0,0.0077,0.0062,0.0049,0.0053,0.0034,0.0004,0.0,-0.002,-0.0048,-0.0051,-0.0094,-0.0104,-0.0127,-0.0156,-0.0149,-0.0184,-0.0205,-0.0208,-0.0154,-0.015,-0.0146,-0.0119,-0.0177,0,0,0,0,0,0.0084,0.0087,0.0064,0.0066,0.0061,0.003,0.0019,0.0003,-0.0024,-0.0037,-0.0069,-0.0105,-0.0135,-0.0152,-0.0182,-0.02,-0.0227,-0.0204,-0.02,-0.0197,-0.0182,-0.0223,-0.0221,-0.0244,-0.0244,-0.0244,0,0,0.009,0.0083,0.0083,0.007,0.0054,0.0058,0.0023,0.0015,0.0015,-0.0041,-0.0052,-0.0091,-0.0138,-0.0157,-0.017,-0.018,-0.0205,-0.0197,-0.0193,-0.0181,-0.0224,-0.0221,-0.0219,-0.0244,-0.0244,-0.0244,0,0,0.0113,0.0103,0.0115,0.0107,0.0092,0.0077,0.0077,0.0051,0.0037,0.0018,-0.0022,-0.0057,-0.01,-0.0132,-0.0154,-0.0149,-0.0183,-0.016,-0.0117,-0.0157,-0.0155,-0.0154,-0.0181,-0.0183,-0.0158,-0.0158,-0.0158,0,0.012,0.0136,0.0114,0.0127,0.013,0.0091,0.0109,0.0089,0.0055,0.0049,0.0025,-0.0042,-0.0087,-0.011,-0.011,-0.0138,-0.0161,-0.0127,-0.015,-0.015,-0.0149,-0.0178,-0.018,-0.0154,-0.0155,-0.0155,-0.0155,0,0.0154,0.0166,0.0175,0.0183,0.0181,0.0189,0.0168,0.0159,0.0135,0.0115,0.0086,0.0021,-0.0016,-0.0041,-0.0075,-0.0093,-0.0109,-0.0139,-0.0155,-0.0142,-0.0174,-0.0178,-0.015,-0.0151,-0.0152,-0.0153,0,0,0.0176,0.0196,0.0199,0.0219,0.0215,0.0221,0.0225,0.022,0.0229,0.018,0.0182,0.0113,0.0079,0.0051,-0.0002,-0.0041,-0.0068,-0.008,-0.0084,-0.0095,-0.0143,-0.0157,-0.0163,-0.0099,-0.01,-0.01,-0.0164,0,0.0209,0.0252,0.0251,0.0294,0.0318,0.0298,0.0305,0.0294,0.0277,0.0267,0.0197,0.0177,0.0114,0.0096,0.0048,-0.0036,-0.0075,-0.0047,-0.0164,-0.0167,-0.0172,-0.0167,-0.0148,-0.0203,-0.0168,-0.0168,-0.0169,0,0.0245,0.0274,0.0321,0.0361,0.0369,0.0385,0.0404,0.0409,0.0384,0.0369,0.0335,0.0283,0.0223,0.0161,0.0038,0.0062,-0.0029,-0.01,-0.0105,-0.0142,-0.0189,-0.0213,-0.0212,-0.0176,-0.0175,-0.0175,-0.0174,0,0.0281,0.0326,0.0369,0.0382,0.0412,0.043,0.0444,0.0439,0.0464,0.0438,0.0447,0.0365,0.0327,0.0209,0.0066,0.0051,-0.007,-0.0117,-0.0214,-0.0216,-0.0233,-0.0236,-0.0206,-0.0206,-0.0206,-0.0205,-0.0205,0,0.0323,0.0363,0.039,0.0418,0.0475,0.0477,0.0534,0.0532,0.0547,0.0588,0.0506,0.0512,0.0337,0.0246,0.0104,-0.0053,-0.0044,-0.0197,-0.0233,-0.021,-0.021,-0.0215,-0.0216,-0.0208,-0.0207,-0.0207,-0.0206,0,0.0361,0.0374,0.0436,0.0477,0.0496,0.0538,0.0608,0.0651,0.0649,0.07,0.0697,0.0624,0.0503,0.033,0.0137,0.0002,-0.0154,-0.0215,-0.0167,-0.0196,-0.0283,-0.028,-0.0333,-0.0334,-0.0335,-0.0336,-0.0336,0,0.0388,0.0421,0.0483,0.0527,0.0553,0.0618,0.0667,0.0698,0.0759,0.0775,0.0808,0.0709,0.0656,0.0378,0.0121,-0.012,-0.0154,-0.0263,-0.0301,-0.0267,-0.0296,-0.0291,-0.0286,-0.0299,-0.03,-0.03,-0.03,0,0.0451,0.0465,0.0514,0.0599,0.0663,0.0743,0.0822,0.0885,0.0924,0.0957,0.0985,0.0941,0.0677,0.0433,0.0101,-0.0066,-0.0224,-0.0276,-0.0256,-0.0266,-0.024,-0.0267,-0.0262,-0.0302,-0.0302,-0.0301,-0.0301,-0.0301,0.05,0.0543,0.0602,0.0685,0.0762,0.0862,0.0938,0.1015,0.1105,0.1155,0.1109,0.1036,0.0769,0.0336,0.0057,-0.0245,-0.0242,-0.035,-0.0348,-0.0346,-0.0327,-0.0303,-0.0373,-0.0373,-0.0373,-0.0373,-0.0373,0,0.0566,0.061,0.069,0.0789,0.088,0.0907,0.1038,0.1109,0.1205,0.1229,0.1227,0.0978,0.0687,0.0383,-0.0065,-0.0327,-0.035,-0.0408,-0.0376,-0.0372,-0.0369,-0.035,-0.0403,-0.0404,-0.0404,-0.0405,0,0,0.0606,0.0689,0.0725,0.0875,0.0943,0.1076,0.1152,0.1242,0.1291,0.1313,0.126,0.1143,0.0778,0.0454,0.0099,-0.0151,-0.0202,-0.0204,-0.0153,-0.0069,-0.0063,-0.031,-0.0274,0,0,0,0,0]}],[{"header":{"parameterUnit":"m.s-1","parameterCategory":2,"la1":30.2991,"la2":30.254,"lo1":-89.0895,"lo2":-89.0444,"dy":0.0017,"dx":0.0017,"nx":28,"ny":28,"refTime":"2023-10-15T09:00:00:Z","depth":"4","parameterNumber":2,"parameterNumberName":"U-component_of_CURRENTS"},"data":[0,0,0,0,0,0,0,0,0,0,0,0,0,0,0,0,0,0,0,0,0,0,0,0,0,0,0,0,0,0,0,0,0,0,0,0,0,0,0,0,0,0,0,0,0,0,0,0,0,0,0,0,0,0,0,0,0,0,0.1304,0.1306,0,0.1384,0.1384,0.1385,0.1438,0.1439,0.144,0.1441,0.1462,0.1462,0.1462,0,0,0,0,0,0,0,0,0,0,0,0,0,0.1185,0.1187,0.1304,0.1306,0.1307,0.1384,0.1384,0.1385,0.1438,0.1439,0.144,0.1441,0.1462,0.1462,0.1462,0,0,0,0,0,0,0,0,0,0,0,0,0,0.1242,0.1187,0.1304,0.1348,0.1353,0.1384,0.1384,0.1385,0.1438,0.1439,0.1441,0.1442,0.1463,0.1462,0.1462,0.1431,0,0,0.146,0.146,0,0,0,0,0,0,0,0,0.1239,0.1246,0.134,0.1345,0.1351,0.1408,0.1351,0.14,0.1438,0.1399,0.1441,0.1443,0.1442,0.1443,0.1447,0.1432,0.1433,0.146,0.146,0.146,0.146,0,0,0,0,0,0,0,0.1235,0.1243,0.1329,0.1341,0.1348,0.136,0.1368,0.136,0.1406,0.1402,0.1408,0.1426,0.1444,0.1447,0.1448,0.1433,0.146,0.146,0.1459,0.1459,0.1492,0.1493,0,0,0,0,0,0,0.1237,0.1239,0.1327,0.1333,0.1304,0.1361,0.1371,0.1383,0.1407,0.1415,0.1425,0.1429,0.1447,0.1448,0.1449,0.1515,0.146,0.1459,0.1459,0.1491,0.1492,0.1493,0,0,0,0,0,0,0.1234,0.1244,0.1324,0.1293,0.1305,0.1362,0.1375,0.1384,0.1425,0.1426,0.1431,0.1462,0.1449,0.1449,0.1468,0.1513,0.1459,0.1459,0.149,0.1491,0.1493,0.1583,0,0,0,0,0,0,0.123,0.1242,0.1261,0.1293,0.1307,0.1367,0.1375,0.1385,0.1434,0.1441,0.1458,0.146,0.145,0.1469,0.1468,0.1511,0.1458,0.1488,0.149,0.1492,0.1579,0.1587,0.1595,0,0,0,0,0,0.1225,0.1244,0.1261,0.1273,0.1328,0.1368,0.1376,0.1417,0.1435,0.1457,0.1467,0.1461,0.1482,0.1469,0.1468,0.1512,0.1487,0.149,0.1492,0.1575,0.1586,0.1595,0,0,0,0,0,0,0.1208,0.1253,0.1272,0.1306,0.1347,0.1381,0.1415,0.1434,0.146,0.1475,0.1467,0.1469,0.1505,0.1488,0.1474,0.1526,0.1487,0.1489,0.155,0.156,0.1569,0.1562,0.1458,0,0,0,0,0,0.1212,0.1235,0.1282,0.1312,0.1341,0.1382,0.1409,0.1436,0.1461,0.1477,0.149,0.15,0.1507,0.1519,0.1519,0.154,0.1526,0.1569,0.1578,0.1585,0.1578,0.1596,0.1605,0.1502,0.1502,0.1502,0,0,0.1212,0.1243,0.1256,0.131,0.135,0.139,0.1402,0.1457,0.1487,0.1471,0.1522,0.1529,0.1518,0.155,0.1565,0.1547,0.1609,0.1588,0.1595,0.1583,0.1599,0.1609,0.1618,0.1504,0.1503,0.1503,0,0,0.1223,0.126,0.1287,0.1325,0.1394,0.1418,0.1442,0.1496,0.1526,0.1562,0.1565,0.1591,0.1608,0.1611,0.161,0.1658,0.1652,0.1678,0.1719,0.1738,0.1747,0.1754,0.1762,0.1769,0.1685,0.1685,0.1685,0,0.1227,0.1267,0.1302,0.1346,0.1386,0.1435,0.1478,0.1508,0.1559,0.158,0.1592,0.1634,0.163,0.166,0.1685,0.1678,0.1689,0.1686,0.175,0.1757,0.1763,0.1769,0.1776,0.169,0.1689,0.1689,0.1688,0,0.1251,0.13,0.1328,0.1392,0.1433,0.1484,0.1534,0.158,0.1621,0.1643,0.1699,0.1703,0.1728,0.1742,0.1729,0.1781,0.1776,0.1759,0.1727,0.1779,0.1782,0.1787,0.1696,0.1695,0.1693,0.1692,0,0,0.1217,0.1323,0.1336,0.1382,0.1468,0.1501,0.1563,0.1622,0.1667,0.1714,0.1767,0.1788,0.181,0.1809,0.1816,0.1833,0.1891,0.1828,0.1827,0.1839,0.1942,0.1836,0.1832,0.1904,0.1905,0.1906,0.1932,0,0.1234,0.1315,0.1362,0.1442,0.1496,0.1559,0.1607,0.1662,0.1716,0.1776,0.1796,0.1846,0.1831,0.1869,0.1885,0.1888,0.1908,0.1885,0.1885,0.1884,0.1787,0.1835,0.191,0.1936,0.1937,0.1938,0.1938,0,0.1235,0.1299,0.1381,0.1484,0.1513,0.1564,0.1661,0.171,0.1789,0.1835,0.189,0.1915,0.1956,0.1941,0.1967,0.1964,0.1962,0.1955,0.1956,0.1823,0.1787,0.1868,0.1948,0.1947,0.1946,0.1946,0.1945,0,0.1184,0.1304,0.1372,0.141,0.153,0.1583,0.1646,0.1733,0.1786,0.1887,0.194,0.1985,0.2028,0.2031,0.2025,0.2014,0.2047,0.2021,0.1919,0.1912,0.1959,0.1951,0.2038,0.2038,0.2038,0.2038,0.2038,0,0.1162,0.1223,0.1365,0.1402,0.1488,0.1577,0.1667,0.1735,0.1843,0.1898,0.1975,0.202,0.2059,0.2081,0.2058,0.2004,0.2073,0.1926,0.1911,0.1998,0.1993,0.1964,0.1955,0.2039,0.2039,0.2039,0.2039,0,0.1089,0.1182,0.1267,0.1413,0.1468,0.1526,0.168,0.1733,0.1851,0.1934,0.1974,0.2067,0.2089,0.2105,0.2112,0.2036,0.1999,0.1966,0.2067,0.2058,0.1842,0.1838,0.184,0.1836,0.1833,0.1831,0.1829,0,0.1061,0.11,0.1257,0.1308,0.1384,0.15,0.1572,0.172,0.1779,0.1935,0.1955,0.2042,0.2079,0.2001,0.2028,0.1982,0.1954,0.1925,0.1865,0.1836,0.1823,0.1823,0.1822,0.1824,0.1823,0.1822,0.1822,0,0.1003,0.1061,0.1126,0.124,0.1332,0.1417,0.1539,0.1578,0.1732,0.1858,0.1897,0.1909,0.1936,0.1923,0.1917,0.1876,0.1932,0.1893,0.1898,0.1841,0.1817,0.1807,0.181,0.1811,0.1813,0.1814,0.1814,0,0.0957,0.0981,0.1074,0.1161,0.1258,0.1309,0.1384,0.1471,0.1556,0.1738,0.1743,0.1828,0.1923,0.187,0.1855,0.1818,0.1773,0.1696,0.1711,0.1722,0.1668,0.162,0.1542,0,0,0,0,0,0.0916,0.094,0.0998,0.1088,0.1165,0.123,0.1352,0.1427,0.1589,0.1576,0.1662,0.1681,0.1679,0.1721,0.1652,0.1776,0.1765,0.1687,0.1681,0.1754,0.1766,0.1711,0,0,0,0,0,0,0.0894,0.0941,0.0969,0.1006,0.1048,0.1133,0.1197,0.1297,0.1305,0.1464,0.1469,0.1587,0.1602,0.1703,0.1625,0.1634,0.1595,0.175,0.1745,0.1747,0.1758,0.1768,0.1715,0,0,0,0,0]},{"header":{"parameterUnit":"m.s-1","parameterCategory":2,"la1":30.2991,"la2":30.254,"lo1":-89.0895,"lo2":-89.0444,"dy":0.0017,"dx":0.0017,"nx":28,"ny":28,"refTime":"2023-10-15T09:00:00:Z","depth":"4","parameterNumber":3,"parameterNumberName":"V-component_of_CURRENTS"},"data":[0,0,0,0,0,0,0,0,0,0,0,0,0,0,0,0,0,0,0,0,0,0,0,0,0,0,0,0,0,0,0,0,0,0,0,0,0,0,0,0,0,0,0,0,0,0,0,0,0,0,0,0,0,0,0,0,0,0,0.0238,0.0238,0,0.0178,0.0177,0.0176,0.0155,0.0155,0.0156,0.0156,0.0133,0.0133,0.0132,0,0,0,0,0,0,0,0,0,0,0,0,0,0.0272,0.0272,0.0239,0.0238,0.0237,0.0178,0.0177,0.0176,0.0155,0.0155,0.0156,0.0156,0.0134,0.0133,0.0132,0,0,0,0,0,0,0,0,0,0,0,0,0,0.0241,0.0272,0.0239,0.0218,0.0216,0.0178,0.0177,0.0176,0.0155,0.0155,0.0156,0.0156,0.0134,0.0133,0.0132,0.0121,0,0,0.0129,0.0128,0,0,0,0,0,0,0,0,0.0242,0.024,0.0222,0.022,0.0217,0.0173,0.0181,0.0159,0.0155,0.0179,0.0156,0.0156,0.0149,0.0147,0.0136,0.012,0.0119,0.0129,0.0128,0.0127,0.0127,0,0,0,0,0,0,0,0.0245,0.0242,0.0216,0.0221,0.0218,0.019,0.0187,0.0176,0.0166,0.0177,0.0175,0.0167,0.0148,0.0137,0.0136,0.0119,0.0129,0.0128,0.0127,0.0127,0.0106,0.0106,0,0,0,0,0,0,0.0253,0.0244,0.0217,0.0214,0.0229,0.019,0.0186,0.0188,0.0165,0.0161,0.0167,0.0166,0.0139,0.0137,0.0135,0.0131,0.0127,0.0126,0.0126,0.0106,0.0106,0.0106,0,0,0,0,0,0,0.0254,0.0252,0.022,0.0226,0.022,0.0189,0.0192,0.0187,0.0177,0.0156,0.0153,0.0163,0.0139,0.0136,0.0133,0.0129,0.0126,0.0125,0.0105,0.0106,0.0106,0.0116,0,0,0,0,0,0,0.0256,0.0253,0.0259,0.0227,0.022,0.0202,0.0191,0.0185,0.0171,0.017,0.0152,0.015,0.0139,0.0135,0.0132,0.0128,0.0124,0.0105,0.0106,0.0106,0.0116,0.0117,0.0117,0,0,0,0,0,0.0257,0.0263,0.026,0.0257,0.0229,0.0202,0.0196,0.0175,0.0171,0.0167,0.0159,0.015,0.0133,0.0134,0.0131,0.0126,0.0105,0.0105,0.0106,0.0115,0.0116,0.0117,0,0,0,0,0,0,0.0277,0.026,0.0257,0.0257,0.0234,0.0198,0.0191,0.0177,0.0166,0.0169,0.0152,0.0149,0.0142,0.0136,0.0137,0.0121,0.0117,0.0117,0.0126,0.0127,0.0127,0.0141,0.0123,0,0,0,0,0,0.0286,0.029,0.0263,0.0263,0.0253,0.0224,0.0211,0.0197,0.018,0.0175,0.0161,0.0151,0.0139,0.0136,0.0124,0.0118,0.0097,0.0114,0.0114,0.0115,0.0124,0.0079,0.0076,0.0106,0.0106,0.0106,0,0,0.0292,0.0284,0.0285,0.0268,0.025,0.024,0.0217,0.02,0.0195,0.0175,0.0169,0.0152,0.0138,0.0129,0.0125,0.0125,0.0095,0.0115,0.0116,0.0125,0.0078,0.0075,0.0073,0.0106,0.0106,0.0106,0,0,0.0302,0.0301,0.0305,0.0292,0.0269,0.0253,0.025,0.0218,0.0208,0.02,0.0181,0.0164,0.0152,0.0134,0.0126,0.0126,0.0098,0.0122,0.0139,0.0094,0.0091,0.0088,0.0054,0.0048,0.0125,0.0125,0.0125,0,0.0309,0.0315,0.0299,0.0297,0.0292,0.0262,0.0262,0.0244,0.0217,0.0212,0.0205,0.017,0.0154,0.0137,0.0137,0.0127,0.0102,0.0135,0.0094,0.0091,0.0088,0.0053,0.0046,0.0126,0.0126,0.0125,0.0125,0,0.0318,0.0325,0.0324,0.0322,0.0313,0.0307,0.0284,0.0273,0.0261,0.0243,0.0223,0.0192,0.0175,0.0159,0.015,0.012,0.011,0.0096,0.009,0.0085,0.0049,0.0042,0.0126,0.0126,0.0126,0.0126,0,0,0.0328,0.0332,0.0333,0.0342,0.0329,0.0323,0.0317,0.0303,0.0304,0.027,0.0262,0.0227,0.0207,0.0197,0.0169,0.013,0.008,0.011,0.0107,0.0074,-0.0014,-0.0014,-0.0023,0.0055,0.0054,0.0053,-0.0031,0,0.034,0.0354,0.0352,0.0367,0.0371,0.0355,0.0355,0.0341,0.0327,0.0311,0.0265,0.0252,0.0222,0.0214,0.0168,0.0105,0.0062,0.0105,-0.0002,-0.0004,-0.0006,-0.0031,0.005,-0.0037,-0.0039,-0.004,-0.0041,0,0.0347,0.036,0.038,0.0398,0.0399,0.0405,0.0409,0.0407,0.0379,0.0367,0.0338,0.0304,0.025,0.0222,0.0108,0.0136,0.0068,0.0012,0.0007,0.0001,-0.0018,-0.003,-0.0054,-0.0053,-0.0052,-0.0051,-0.005,0,0.0363,0.038,0.0404,0.0408,0.0418,0.0428,0.0436,0.0425,0.0434,0.0406,0.0405,0.0334,0.0301,0.0203,0.0096,0.0099,-0.0038,-0.005,-0.0118,-0.0119,-0.0097,-0.0093,-0.0138,-0.0138,-0.0137,-0.0137,-0.0137,0,0.0376,0.0395,0.0415,0.0428,0.0457,0.0458,0.049,0.0483,0.0484,0.0495,0.0441,0.0421,0.0294,0.0204,0.0101,-0.0029,-0.0037,-0.0118,-0.0144,-0.009,-0.0085,-0.0103,-0.0098,-0.014,-0.014,-0.0139,-0.0138,0,0.0387,0.0399,0.0427,0.0453,0.0465,0.0489,0.0534,0.0553,0.0553,0.0563,0.0557,0.0479,0.0363,0.0232,0.0067,-0.0015,-0.0142,-0.0188,-0.0115,-0.0135,-0.0194,-0.0188,-0.027,-0.0271,-0.0271,-0.0272,-0.0272,0,0.0397,0.0412,0.0451,0.0473,0.049,0.0532,0.0559,0.0581,0.0606,0.0594,0.0592,0.0496,0.0426,0.0201,0.0056,-0.0142,-0.017,-0.0233,-0.0219,-0.0193,-0.021,-0.0202,-0.0194,-0.0273,-0.0273,-0.0274,-0.0274,0,0.0416,0.0428,0.0454,0.0503,0.0539,0.0579,0.0623,0.0643,0.0663,0.0667,0.0622,0.0511,0.0376,0.0202,0.0049,-0.0095,-0.019,-0.0241,-0.024,-0.0228,-0.0198,-0.0212,-0.0204,-0.0276,-0.0276,-0.0276,-0.0275,0,0.0437,0.0453,0.049,0.0533,0.0579,0.0611,0.0629,0.0653,0.0676,0.0668,0.0645,0.051,0.0434,0.0224,0.0079,-0.0057,-0.0092,-0.0132,-0.0138,-0.0138,-0.0074,-0.0015,-0.0063,0,0,0,0,0,0.046,0.0481,0.0518,0.0565,0.0612,0.0645,0.0668,0.0681,0.0698,0.0676,0.0669,0.0547,0.034,0.0244,0.0108,0.0051,-0.0128,-0.0115,-0.018,-0.0289,-0.0286,-0.0234,0,0,0,0,0,0,0.0475,0.0512,0.0521,0.0589,0.0634,0.0687,0.0702,0.0704,0.0692,0.0687,0.0576,0.0536,0.0328,0.0439,0.0122,0.0078,0.0018,-0.0207,-0.021,-0.029,-0.0288,-0.0286,-0.0231,0,0,0,0,0]}]]